This is the latest recevied weather packets stored in our database for station/object KI2K. If no packets are shown the sender has not sent any weather packets the latest 10 day(s).
| Time | Temp. | Humidity | Pressure | Rain* | Wind** | Luminosity | Snow |
|---|---|---|---|---|---|---|---|
| 1777564270 | 13.33° C | 63% | 1017.3 hPa | 0 mm | - | 807 W/m² | - |
| 1777563966 | 12.78° C | 57% | 1017.3 hPa | 0 mm | - | 813 W/m² | - |
| 1777563662 | 12.22° C | 62% | 1017.4 hPa | 0 mm | - | 813 W/m² | - |
| 1777563356 | 12.22° C | 64% | 1017.4 hPa | 0 mm | - | 832 W/m² | - |
| 1777563053 | 12.22° C | 63% | 1017.4 hPa | 0 mm | - | 796 W/m² | - |
| 1777562749 | 12.78° C | 61% | 1017.4 hPa | 0 mm | - | 790 W/m² | - |
| 1777562447 | 12.78° C | 61% | 1017.2 hPa | 0 mm | - | 777 W/m² | - |
| 1777562144 | 12.78° C | 63% | 1017.2 hPa | 0 mm | - | 740 W/m² | - |
| 1777561842 | 13.33° C | 61% | 1017.2 hPa | 0 mm | - | 735 W/m² | - |
| 1777561538 | 12.78° C | 64% | 1017.4 hPa | 0 mm | - | 703 W/m² | - |
| 1777561233 | 12.22° C | 65% | 1017.3 hPa | 0 mm | - | 689 W/m² | - |
| 1777560933 | 11.11° C | 66% | 1017.3 hPa | 0 mm | - | 691 W/m² | - |
| 1777560630 | 11.67° C | 65% | 1017.2 hPa | 0 mm | - | 697 W/m² | - |
| 1777560328 | 11.67° C | 65% | 1017.5 hPa | 0 mm | - | 678 W/m² | - |
| 1777560026 | 11.11° C | 67% | 1017.4 hPa | 0 mm | - | 657 W/m² | - |
| 1777559721 | 11.11° C | 68% | 1017.5 hPa | 0 mm | - | 636 W/m² | - |
| 1777559418 | 10.56° C | 68% | 1017.2 hPa | 0 mm | - | 633 W/m² | - |
| 1777559115 | 10.56° C | 68% | 1017.4 hPa | 0 mm | - | 614 W/m² | - |
| 1777558809 | 10° C | 70% | 1017.1 hPa | 0 mm | - | 591 W/m² | - |
| 1777558505 | 10° C | 70% | 1017.1 hPa | 0 mm | - | 540 W/m² | - |
| 1777558202 | 10.56° C | 69% | 1017.3 hPa | 0 mm | - | 517 W/m² | - |
| 1777557898 | 10° C | 73% | 1017.3 hPa | 0 mm | - | 483 W/m² | - |
| 1777557595 | 9.44° C | 71% | 1017.2 hPa | 0 mm | - | 486 W/m² | - |
| 1777557291 | 9.44° C | 71% | 1017.2 hPa | 0 mm | - | 484 W/m² | - |
| 1777556987 | 8.89° C | 72% | 1017.2 hPa | 0 mm | - | 473 W/m² | - |
* Rain latest hour (hover to see other rain measurements)
** Current wind speed in m/s (hover to see current wind gust speed)